カタログに戻る

GOMX-1

GOMX 1

運用中アマチュア無線SSO
NORAD 39430·PAYLOAD·🇩🇰 Denmark

打ち上げ Nov 21, 2013 から Dombarovsky

Loading…

次のパス (今後24時間)

TLE

最新Source: AMSAT

元期: Sep 14, 2026, 14:03 UTC

1 39430U 13066Q   26257.58553654  .00001380  00000-0  21164-3 0  9997
2 39430  97.6433  92.4140 0128579 149.5948 211.2798 14.69693358683040

AllMySatでGOMX-1をリアルタイム追跡

Download on the App Store